Regional Weather Roundup
Issued by NWS

Current Version | Previous Version | Text Only | Print | Product List | Glossary On
Versions: 1 2 3 4 5 6 7 8 9 10 11 12 13 14 15 16 17 18 19 20 21 22 23 24 25 26 27 28 29 30 31 32 33 34 35 36 37 38 39 40 41 42 43 44 45 46 47 48 49 50
000
ASMX46 KSGX 232111
RWRMX

MEXICAN WEATHER ROUNDUP
NATIONAL WEATHER SERVICE SAN DIEGO CA
200 PM PDT WED JUN 23 2021

BAJA CALIFORNIA

CITY           SKY/WX    TMP DP  RH WIND       PRES   REMARKS
ENSENADA NW      N/A     70  32  24 W12       29.92F
LA PAZ         MOSUNNY   91  54  27 SW14      29.90
LORETO         SUNNY     90  70  51 S18       29.84F HX  95
MEXICALI       MOSUNNY  102  52  18 S6        29.80  HX 100
S.J. DEL CABO  MOSUNNY   88  55  33 SE12      29.91
TIJUANA        PTSUNNY   73  61  64 W8        29.97

NORTHWESTERN MEXICO

CITY           SKY/WX    TMP DP  RH WIND       PRES   REMARKS
CHIHUAHUA      PTSUNNY   95  45  17 SE10      30.05
CULIACAN       MOSUNNY   91  72  52 S9G21     29.89  HX  98
GUAYMAS        MOSUNNY   91  75  59 SW15      29.85  HX 102
HERMOSILLO     MOSUNNY  100  63  28 SW6       29.89  HX 102
JUAREZ         PTSUNNY   99  46  16 SW12      30.00  HX  95
LOS MOCHIS     MOSUNNY   90  68  48 S17       29.91S
OBREGON        MOSUNNY   93  63  36 S13       29.86

NORTHEASTERN MEXICO

CITY           SKY/WX    TMP DP  RH WIND       PRES   REMARKS
MATAMOROS      PTSUNNY   90  82  79 SE17      29.93  HX 111
MONCLOVA         N/A    N/A N/A N/A MISG        N/A
MONTERREY      MOSUNNY   86  72  62 SE8       29.92F
NUEVO LAREDO   MOSUNNY   93  73  52 S15       29.90  HX 102
PIEDRAS NEGRAS MOSUNNY   93  70  46 SE12      29.91F HX  99
REYNOSA        PTSUNNY   90  75  62 SE14      29.91  HX 100
SALTILLO       MOSUNNY   84  52  32 N14       30.14F
TORREON        PTSUNNY   91  59  33 CALM      29.99
VICTORIA       PTSUNNY   97  64  34 S7        29.89  HX  99

WESTERN MEXICO

CITY           SKY/WX    TMP DP  RH WIND       PRES   REMARKS
AGUASCALIENTES CLOUDY    72  55  56 SE6       30.25
COLIMA         PTSUNNY   82  72  69 CALM      30.02F
DURANGO        CLOUDY    81  48  32 N12       30.18F THUNDER
GUADALAJARA    PTSUNNY   68  57  68 NW13      30.21
MANZANILLO     PTSUNNY   90  81  74 SW12      29.84  HX 108
MAZATLAN       MOSUNNY   86  75  70 SW12      29.92S HX  95
PTO. VALLARTA  CLOUDY    82  75  78 SW6       29.90F
TEPIC          MOSUNNY   81  68  65 N9        30.05F
URUAPAN        CLOUDY    70  64  83 SE7       30.21F
ZACATECAS      PTSUNNY   70  57  64 S7        30.27

CENTRAL MEXICO

CITY           SKY/WX    TMP DP  RH WIND       PRES   REMARKS
CUERNAVACA     PTSUNNY   81  64  57 SE3       30.13F
LEON           CLOUDY    77  55  47 NW7       30.28F
MEXICO CITY    PTSUNNY   75  50  41 SW8       30.31F
MORELIA        PTSUNNY   72  57  60 E6        30.25
POZA RICA      CLOUDY    91  77  62 SE6       29.90F HX 105
PUEBLA         PTSUNNY   72  54  53 SW13      30.33F
QUERETARO      PTSUNNY   79  55  44 S7        30.28F
S. LUIS POTOSI TSTM      63  55  77 NW7       30.25R
TAMPICO        PTSUNNY   88  77  70 E12       29.90F HX 100
TOLUCA         CLOUDY    59  50  72 E3        30.40
VERACRUZ       MOSUNNY   90  77  66 NE8       29.91F HX 102

SOUTHERN MEXICO

CITY           SKY/WX    TMP DP  RH WIND       PRES   REMARKS
ACAPULCO       PTSUNNY   90  77  66 SE9       29.87F HX 102
B. DE HUATULCO LGT RAIN  75  66  73 S12       29.97R
MINATITLAN     MOSUNNY   91  82  75 CALM      29.85  HX 114
OAXACA         PTSUNNY   66  57  72 N14       30.21F
PTO. ESCONDIDO CLOUDY    86  68  54 SE9       29.92F
TAPACHULA      CLOUDY    82  73  74 S6        29.93S
TUX. GUTIERREZ PTSUNNY   90  68  48 W5        29.93F
VILLAHERMOSA   PTSUNNY   93  77  59 CALM      29.89F HX 107
ZIHUATANEJO    PTSUNNY   91  77  62 S6        29.91  HX 105

YUCATAN PENINSULA

CITY           SKY/WX    TMP DP  RH WIND       PRES   REMARKS
CAMPECHE       MOSUNNY   95  75  52 E9        29.90F HX 107
CANCUN         MOSUNNY   90  75  62 SE18      30.04S HX 100
CHETUMAL       MOSUNNY   90  77  66 SE17      29.96  HX 102
C. DEL CARMEN  MOSUNNY   93  75  55 SE7       29.88  HX 104
COZUMEL        MOSUNNY   88  75  66 E10       30.01F HX  97
MERIDA         MOSUNNY   95  75  52 S12       29.95F HX 107

$$




USA.gov is the U.S. government's official web portal to all federal, state and local government web resources and services.